Location: Anjeux
(47.8815°N, 6.2076°E)
Time: 02:03:20
(UTC+00:00)

First-Move - Pass Details

Date: 05 December 2021
Orbit: 574 x 664 km, 97.6° (Epoch: 22 January)

Event Time Altitude Azimuth Distance (km) Brightness Sun altitude
Rises 04:03:22 0° 14° (NNE) 3,004 ? -30.0°
Reaches altitude 10° 04:05:36 10° 16° (NNE) 2,093 ? -29.7°
Enters shadow 04:06:31 16° 18° (NNE) 1,728 ? -29.5°
